Home > Weather > Bayreuth > Past weeks

Flag for Germany Weather for the Past 2 Weeks in Bayreuth, Bavaria, Germany

Now
37 °F

Overcast.


Feels Like: 33 °F
Forecast: 40 / 46 °F
Wind: 6 mph from South

Location: Grafenwoehr

Current Time: Feb 8, 2016 at 7:19:23 AM

Latest Report: Feb 8, 2016 at 6:58 AM


Visibility: N/A

Pressure: 29.77 "Hg

Humidity: 81%

Dew point: 32 °F

Location of BayreuthLocation

Historic Weather in Bayreuth — Graph

°F

Bayreuth Temperature Yesterday

Maximum temperature yesterday: 48 °F (at 2:58 PM)
Minimum temperature yesterday: 27 °F (at 3:58 AM)
Average temperature yesterday: 37 °F

High & Low Weather Summary for the Past Weeks

 TemperatureHumidityPressure
High55 °F (Jan 27, 1:58 PM)100% (Jan 24, 6:00 AM)30.59 "Hg (Jan 24, 6:00 AM)
Low27 °F (Feb 7, 3:58 AM)51% (Jan 29, 1:58 PM)29.67 "Hg (Feb 7, 2:58 PM)
Average39 °F87%30.17 "Hg
* Reported Jan 24 6:00 AM — Feb 8 5:58 AM, Bayreuth, Weather by CustomWeather, © 2016

Note: Actual official high and low records may vary slightly from our data, if they occured in-between our weather recording intervals... More about our weather records

Advertising

Bayreuth Weather History for the Previous 24 Hours

 ConditionsComfort  
Time TempWeatherWind HumidityBarometerVisibility
5:58 AM
Mon, Feb 8
37 °FClear.5 mph84%29.79 "HgN/A
4:58 AM38 °FClear.5 mph84%29.80 "HgN/A
3:58 AM37 °FClear.5 mph87%29.81 "HgN/A
2:58 AM39 °FClear.2 mph83%29.82 "HgN/A
1:58 AM41 °FMostly cloudy.6 mph76%29.83 "HgN/A
12:58 AM43 °FOvercast.1 mph71%29.85 "HgN/A
11:58 PM
Sun, Feb 7
43 °FPassing clouds.2 mph71%29.87 "HgN/A
10:58 PM43 °FClear.3 mph71%29.85 "HgN/A
9:58 PM43 °FPartly cloudy.6 mph76%29.86 "HgN/A
8:58 PM45 °FMostly cloudy.9 mph66%29.83 "HgN/A
7:58 PM45 °FMostly cloudy.No wind76%29.82 "HgN/A
6:58 PM41 °FMostly cloudy.No wind81%29.79 "HgN/A
5:58 PM41 °FMostly cloudy.No wind81%29.78 "HgN/A
4:58 PM43 °FScattered clouds.No wind76%29.74 "HgN/A
3:58 PM45 °FSunny.No wind71%29.71 "HgN/A
2:58 PM48 °FSunny.No wind58%29.67 "HgN/A
1:58 PM46 °FScattered clouds.No wind62%29.68 "HgN/A
12:58 PM43 °FSunny.No wind71%29.69 "HgN/A
11:58 AM39 °FPassing clouds.No wind75%29.73 "HgN/A
10:58 AM37 °FSunny.No wind81%29.74 "HgN/A
9:58 AM34 °FSunny.No wind93%29.76 "HgN/A
8:58 AM32 °FSunny.No wind93%29.79 "HgN/A
7:58 AM27 °FSunny.No wind93%29.80 "HgN/A
Weather by CustomWeather, © 2016

See weather overviewHow to use our weather pages